Погода в Омолоне

Погода в Омолоне : погода сейчас, прогноз погоды и архив. Всё, что Вы хотите узнать о погоде в Омолоне!

Поиск расширенной информации на нашем сайте:

Другие новости

Новости СМИ2

Главная страница сайта

Новости сайта

03.07.2017

Напоминаем, что на нашем специализированном сайте Метеоцентр.Азия вы можете получить высокодетализированные автоматические прогнозы погоды по пунктам России, СНГ и мира в авиационном формате (включающие направление и скорость ветра, видимость, явления погоды, количество и форму облачности, нижнюю и верхнюю границу облачности).


Погода в Омолоне - сегодня

Время (UTC), дата Ветер
(°,м/с) 
Видим.   Явления Облачность Т
(°С)
Тd
(°С)
f(%) Тe
(°С)
Pmin
(гПа)
dP
(гПа)
Po
(мм)
O2
(г/м3)
Тmin Tmax R s Состояние
почвы
03 21.09.17 140 (ЮВ) 5{09}  50000 м    5/0 средняя 
[Ac trans]
+9.5 +1.7 58 +8  1015.1  -0.9  738  287           
06 21.09.17 140 (ЮВ) 5{10}  50000 м    8/0 средняя, верхняя 
[Sc|Ac trans|Ci fib]
+8.5 +2.5 66 +7  1015  -0.2  738  288           
09 21.09.17 100 (В) 2{10}  50000 м    9/3 1000 м средняя, верхняя 
[Sc|Ac trans|Ci fib]
+4.7 +1.7 81 +4  1016.3  0.8  738  292    +9.7       
12 21.09.17 120 (ЮВ) 1{04}  50000 м    4/0 средняя 
[Ac trans]
+2.4 +0.9 90 +3  1016.7  0.2  738  295           
15 21.09.17 090 (В) 2{04}  50000 м    5/0 средняя 
[Ac trans]
+2.5 +1.1 90 +2  1016.4  -0.3  738  295           
18 21.09.17 100 (В) 1{04}  50000 м    9/8 1350 м средняя 
[Sc|Ac trans]
+5.2 +2.8 84 +6  1015.3  -0.7  738  291           
21 21.09.17 110 (В) 2{04}  50000 м    9/8 1000 м средняя 
[Sc|Ac und]
+6.5 +3.6 82 +6  1015.5  0.3  738  290  +1.8        мокрая 
00 22.09.17 140 (ЮВ) 5{09}  50000 м    8/3 600 м средняя, верхняя 
[Sc|Ac trans|Ci fib]
+10.7 +4.1 64 +10  1014.7  -0.3  738  285           
03 22.09.17 140 (ЮВ) 4{08}  50000 м    9/3 1000 м средняя, верхняя 
[Sc|Ac trans|Ci fib]
+11.2 +4 61 +10  1013.8  -0.8  737  285           
06 22.09.17 140 (ЮВ) 4{09}  50000 м    8/3 1000 м средняя, верхняя 
[Sc|Ac trans|Ci fib]
+10 +3.5 64 +9  1014.1  0.2  737  286           
09 22.09.17 070 (В) 2{08}  50000 м    8/0 средняя, верхняя 
[Ac trans|Ci fib]
+6.7 +3.1 78 +7  1014.7  0.3  737  289    +12.6       
12 22.09.17 090 (В) 2{04}  50000 м    8/0 средняя, верхняя 
[Ac trans|Ci fib]
+4.4 +2.7 89 +4  1015.6  0.4  738  292           
15 22.09.17 090 (В) 1{03}  50000 м    8/0 средняя, верхняя 
[Ac trans|Ci fib]
+2.4 +1.5 94 +3  1016  0.2  738  294           
18 22.09.17 тихо () {03}  50000 м    9/0 средняя, верхняя 
[Ac trans|Ci fib]
+1.1 +0.7 97 +1  1016.2  0.1  738  296           
21 22.09.17 тихо () {01}  50000 м    10/10 870 м 
[Sc]
+4 +2.8 92 +4  1016  0.1  738  293  +0.4        мокрая 
00 23.09.17 140 (ЮВ) 3{06}  50000 м    10/8 930 м средняя 
[Sc|Ac trans]
+9.4 +3.5 67 +9  1015.5  0.1  738  287           
03 23.09.17 100 (В) 3{06}  50000 м    10/8 1050 м средняя, верхняя 
[Sc|Ac trans|Ci fib]
+10.3 +3.6 63 +10  1014.5  -0.8  737  286           
06 23.09.17 090 (В) 2{05}  50000 м    10/8 1140 м средняя 
[Sc|Ac trans]
+9.8 +3.5 65 +10  1014.2  -0.3  737  286           
09 23.09.17 080 (В) 3{05}  50000 м    10/8 1080 м средняя, верхняя 
[Sc|Ac trans|Ci fib]
+7.9 +3.3 73 +7  1014.5  0.1  737  288    +10.6       
12 23.09.17 080 (В) 2{05}  50000 м    10/8 1110 м средняя 
[Sc|Ac trans]
+7.1 +3.9 80 +7  1014.9  0.3  738  289           
15 23.09.17 140 (ЮВ) 1{04}  50000 м    6/0 средняя, верхняя 
[Ac trans|Ci fib]
+4.4 +3 91 +5  1015.3  738  292           
18 23.09.17 тихо () {02}  50000 м    3/0 верхняя 
[Ci fib]
-1.2 -1.5 98 -1  1016.4  0.3  738  299           
21 23.09.17 тихо () {02}  50000 м    10/8 1000 м средняя 
[Sc|Ac trans]
+1.9 +1.3 96 +2  1016.5  0.6  738  295  -1.7        мокрая 
00 24.09.17 тихо () {02}  50000 м    10/8 600 м средняя 
[Sc|Ac trans]
+8.1 +4.1 76 +8  1015.5  -0.8  738  288           
03 24.09.17 050 (СВ) 2{04}  50000 м    9/8 600 м средняя 
[Sc|Ac trans]
+11.9 +4.8 62 +12  1014.4  -0.6  738  284           
Время (UTC), дата Ветер
(°,м/с) 
Видим.   Явления Облачность Т
(°С)
Тd
(°С)
f(%) Тe
(°С)
Pmin
(гПа)
dP
(гПа)
Po
(мм)
O2
(г/м3)
Тmin Tmax R s Состояние
почвы

Для получения пояснительной информации подведите курсор к названию столбца.

ПОГОДА в Омолоне - архив

Всё, что Вы хотите узнать о погоде в Омолоне - удобно и подробно!

Выберите нужную дату (начиная с 1 января 2015* года) и нажмите кнопку "Найти".
Будут отображены архивные сводки погоды по пункту Омолон, начиная с указанной даты.


Отображать данные в формате CSV (для использования в таблицах Excel)


Внимание! Наш архив погоды предназначен исключительно для личного некоммерческого использования в познавательных целях. Если Вам необходимы официальные справки о состоянии погоды (для производственных, юридических, коммерческих и т.п. целей), обращайтесь в органы Росгидромета.

*Примечание: данная дата относится к архиву по метеостанциям СССР (Россия, СНГ, Балтия).
Архив по метеостанциям Зарубежной Европы и Азии (кроме Китая) хранится 10 дней, по другим регионам земного шара (Китай, Африка, Америка, Австралия, Океания) - 1 день.

Омолон - район местоположения метеостанции


Название, широта, долгота, высота метеостанции:
Омолон 65.2°ш. 160.5°д. 264 м над ур. моря [Российская Федерация]

Дополнительная информация

В oтличие oт бoльшинства пoгoдных сайтoв мы публикуем пoдрoбную метеoинфoрмацию в детальнoм прoфессиoнальнoм фoрмате.

Характеристики температуры и влажнoсти вoздуха измеряются на высoте 2 м в тени вдали oт зданий и деревьев.
Скoрoсть ветра измеряется на высoте 10 м (на урoвне рoста челoвека скoрoсть ветра ниже в 1.5-2 раза). Если метеoстанция нахoдится в гoрoде или в лесу, тo скoрoсть ветра занижена на 2-4 м/с пo сравнению с oткрытым местoм. Скoрoсть ветра над акватoриями крупных рек и oзёр, а также на вершинах хoлмoв на 2-5 м/с выше, чем в oбычных услoвиях.
Атмoсфернoе давление в разных тoчках местнoсти мoжет значительнo oтличаться oт давления на метеoстанции, в зависимoсти oт услoвий рельефа (при пoдъёме на 10 м давление пoнижается примернo на 1 мм рт.ст.).